Location: Eyeline Observatory
(43.2182°N, 78.8632°W)
Time: 11:02:18
(UTC-05:00)

Vanguard 2 - Pass Details

Date: 31 January 2018
Orbit: 553 x 2939 km, 32.9° (Epoch: 24 February)

Event Time Altitude Azimuth Distance (km) Brightness Sun altitude
Rises 04:41:19 0° 262° (W) 3,644 - -31.2°
Reaches altitude 10° 04:43:49 10° 252° (WSW) 2,951 - -30.8°
Exits shadow 04:49:20 31° 202° (SSW) 2,279 9.6 -29.8°
Maximum altitude 04:50:15 32° 192° (SSW) 2,334 9.8 -29.6°
Drops below altitude 10° 05:00:02 10° 136° (SE) 4,551 11.9 -27.8°
Sets 05:04:59 0° 128° (SE) 5,947 12.8 -26.9°
